F5MAP-5 Weather Reports


Display with metric or nautical units.
time (UTC)temp
F
wind
direction
speed
MPH
gust
MPH
rain 1hr
in
rain 24hr
in
rain mn
in
humidity
%
barometer
mb
20260509105211 74 339 1.0 6.0 0.00 0.00 0.00 55 1015.9
20260509104211 74 5 2.0 4.0 0.00 0.00 0.00 53 1016.1
20260509103211 73 257 1.0 4.0 0.00 0.00 0.00 55 1016.2
20260509102211 71 342 2.0 4.0 0.00 0.00 0.00 58 1016.3
20260509101211 70 242 3.0 5.0 0.00 0.00 0.00 60 1016.4
20260509100210 69 333 2.0 5.0 0.00 0.00 0.00 60 1016.5
20260509095210 69 205 2.0 7.0 0.00 0.00 0.00 62 1016.6
20260509094210 68 221 2.0 9.0 0.00 0.00 0.00 63 1016.6
20260509093210 67 131 3.0 6.0 0.00 0.00 0.00 63 1016.8
20260509092210 67 259 2.0 4.0 0.00 0.00 0.00 63 1016.9
20260509091210 66 17 1.0 4.0 0.00 0.00 0.00 64 1016.9
20260509090210 65 360 2.0 4.0 0.00 0.00 0.00 65 1017.1
20260509085210 65 24 2.0 4.0 0.00 0.00 0.00 68 1017.1
20260509084210 64 54 2.0 4.0 0.00 0.00 0.00 68 1017.1
20260509083210 63 44 2.0 3.0 0.00 0.00 0.00 70 1017.2
20260509082211 62 85 2.0 6.0 0.00 0.00 0.00 70 1017.2
20260509081215 62 23 3.0 5.0 0.00 0.00 0.00 71 1017.1
20260509080215 61 5 2.0 4.0 0.00 0.00 0.00 72 1017.3
20260509075215 61 44 3.0 6.0 0.00 0.00 0.00 73 1017.2
20260509074215 60 40 3.0 7.0 0.00 0.00 0.00 73 1017.2
20260509072215 59 80 2.0 5.0 0.00 0.00 0.00 76 1017.4
20260509071215 58 110 1.0 4.0 0.00 0.00 0.00 77 1017.4
20260509070215 58 339 2.0 5.0 0.00 0.00 0.00 79 1017.6
20260509064215 57 30 2.0 3.0 0.00 0.00 0.00 83 1017.6
20260509062215 55 39 1.0 4.0 0.00 0.00 0.00 86 1017.3
20260509061214 54 34 1.0 4.0 0.00 0.00 0.00 88 1017.3
20260509060214 53 71 0.0 1.0 0.00 0.00 0.00 88 1017.4
20260509055216 53 38 0.0 0.0 0.00 0.00 0.00 89 1017.3
20260509054215 52 31 0.0 2.0 0.00 0.00 0.00 88 1017.3
20260509053215 52 22 0.0 2.0 0.00 0.00 0.00 88 1017.3
20260509052215 51 221 0.0 0.0 0.00 0.00 0.00 88 1017.3
20260509051215 51 221 0.0 0.0 0.00 0.00 0.00 87 1017.2
20260509050215 50 221 0.0 0.0 0.00 0.00 0.00 86 1017.2
20260509045216 50 221 0.0 0.0 0.00 0.00 0.00 86 1017.1
20260509043215 50 360 0.0 0.0 0.00 0.00 0.00 85 1016.7
20260509042215 50 360 0.0 0.0 0.00 0.00 0.00 85 1016.6
20260509041215 51 360 0.0 2.0 0.00 0.00 0.00 84 1016.5
20260509040215 51 5 1.0 2.0 0.00 0.00 0.00 84 1016.4
20260509035216 51 5 0.0 2.0 0.00 0.00 0.00 84 1016.4
20260509033215 51 5 0.0 1.0 0.00 0.00 0.00 83 1016.4
20260509032214 51 29 0.0 0.0 0.00 0.00 0.00 84 1016.6
20260509031215 52 29 0.0 0.0 0.00 0.00 0.00 83 1016.7
20260509030215 52 29 0.0 0.0 0.00 0.00 0.00 83 1016.8
20260509024216 52 20 0.0 0.0 0.00 0.00 0.00 83 1016.6
20260509023214 52 5 0.0 0.0 0.00 0.00 0.00 82 1016.7
20260509021214 53 348 1.0 4.0 0.00 0.00 0.00 82 1016.5
20260509020214 53 338 0.0 0.0 0.00 0.00 0.00 82 1016.5
20260509015214 53 21 0.0 0.0 0.00 0.00 0.00 82 1016.5
20260509014214 53 5 1.0 3.0 0.00 0.00 0.00 81 1016.5
20260509013215 53 39 0.0 4.0 0.00 0.00 0.00 81 1016.5
20260509012214 54 349 1.0 5.0 0.00 0.00 0.00 80 1016.5
20260509011213 54 36 1.0 5.0 0.00 0.00 0.00 80 1016.5
20260509010213 54 355 2.0 3.0 0.00 0.00 0.00 80 1016.6
20260509005214 54 41 1.0 3.0 0.00 0.00 0.00 80 1016.6
20260509004214 55 32 1.0 2.0 0.00 0.00 0.00 79 1016.6
20260509003214 55 36 1.0 2.0 0.00 0.00 0.00 79 1016.6
20260509002214 55 32 1.0 4.0 0.00 0.00 0.00 79 1016.7
20260509001215 55 28 2.0 4.0 0.00 0.00 0.00 78 1016.7
20260509000214 55 355 0.0 2.0 0.00 0.00 0.00 77 1016.7
20260508235214 56 32 1.0 3.0 0.00 0.00 0.00 77 1016.7
20260508234213 56 355 0.0 0.0 0.00 0.00 0.00 77 1016.7
20260508233213 56 344 0.0 0.0 0.00 0.00 0.00 76 1016.7
20260508232213 56 37 0.0 0.0 0.00 0.00 0.00 75 1016.7
20260508230213 57 338 0.0 2.0 0.00 0.00 0.00 75 1016.6
20260508225214 57 338 3.0 5.0 0.00 0.00 0.00 75 1016.5
20260508224213 58 333 1.0 4.0 0.00 0.00 0.00 75 1016.5
20260508223213 58 332 2.0 4.0 0.00 0.00 0.00 75 1016.5
20260508222213 58 329 5.0 8.0 0.00 0.00 0.00 75 1016.4
20260508221214 58 342 3.0 6.0 0.00 0.00 0.00 75 1016.3
20260508220214 59 346 4.0 8.0 0.00 0.00 0.00 74 1016.3
20260508215213 59 337 2.0 5.0 0.00 0.00 0.00 74 1016.4
20260508214213 59 317 3.0 7.0 0.00 0.00 0.00 74 1016.4
20260508213213 60 341 2.0 5.0 0.00 0.00 0.00 74 1016.3
20260508212213 60 360 3.0 5.0 0.00 0.00 0.00 74 1016.3
20260508211213 60 325 3.0 8.0 0.00 0.00 0.00 74 1016.2
20260508205214 61 5 2.0 6.0 0.00 0.00 0.00 72 1016.0
20260508204214 61 26 4.0 10.0 0.00 0.00 0.00 72 1016.0
20260508203214 62 360 3.0 9.0 0.00 0.00 0.00 71 1016.1
20260508202214 62 5 2.0 4.0 0.00 0.00 0.00 70 1016.1
20260508201214 62 5 2.0 5.0 0.00 0.00 0.00 70 1016.0
20260508200214 63 36 3.0 6.0 0.00 0.00 0.00 68 1015.9
20260508194214 64 29 2.0 6.0 0.00 0.00 0.00 67 1015.5
20260508193214 64 32 2.0 9.0 0.00 0.00 0.00 66 1015.4
20260508192214 65 33 2.0 8.0 0.00 0.00 0.00 65 1015.3
20260508191214 65 9 4.0 8.0 0.00 0.00 0.00 65 1015.1
20260508190214 65 351 4.0 8.0 0.00 0.00 0.00 64 1015.0
20260508183213 66 36 3.0 9.0 0.00 0.00 0.00 63 1014.7
20260508182213 67 36 3.0 10.0 0.00 0.00 0.00 62 1014.6
20260508181213 67 66 4.0 8.0 0.00 0.00 0.00 61 1014.4
20260508175213 68 81 6.0 11.0 0.00 0.00 0.00 58 1014.1
20260508174213 68 55 5.0 11.0 0.00 0.00 0.00 57 1014.0
20260508173213 68 42 4.0 9.0 0.00 0.00 0.00 56 1013.9
20260508172213 69 55 5.0 9.0 0.00 0.00 0.00 56 1013.7
20260508171213 69 52 4.0 9.0 0.00 0.00 0.00 55 1013.6
20260508170212 69 76 3.0 9.0 0.00 0.00 0.00 55 1013.6
20260508165213 69 67 3.0 8.0 0.00 0.00 0.00 54 1013.5
20260508164212 69 12 3.0 8.0 0.00 0.00 0.00 54 1013.5
20260508163212 69 72 4.0 8.0 0.00 0.00 0.00 54 1013.4
20260508162212 69 33 3.0 9.0 0.00 0.00 0.00 54 1013.4
20260508161212 70 12 6.0 10.0 0.00 0.00 0.00 56 1013.4
20260508155212 70 60 3.0 5.0 0.00 0.00 0.00 53 1013.6
20260508154212 70 33 3.0 8.0 0.00 0.00 0.00 52 1013.6
20260508153212 70 344 3.0 8.0 0.00 0.00 0.00 52 1013.5
20260508152212 70 5 4.0 10.0 0.00 0.00 0.00 53 1013.5
20260508151212 70 76 2.0 8.0 0.00 0.00 0.00 50 1013.6
20260508150213 70 57 3.0 6.0 0.00 0.00 0.00 51 1013.7
20260508145212 70 331 3.0 6.0 0.00 0.00 0.00 50 1013.8
20260508144212 70 324 2.0 7.0 0.00 0.00 0.00 50 1014.1
20260508143212 70 67 2.0 10.0 0.00 0.00 0.00 52 1014.1
20260508141212 71 36 4.0 7.0 0.00 0.00 0.00 54 1014.2
20260508140212 70 19 3.0 8.0 0.00 0.00 0.00 55 1014.4
20260508135214 70 90 4.0 9.0 0.00 0.00 0.00 56 1014.4
20260508134213 71 95 3.0 8.0 0.00 0.00 0.00 55 1014.4
20260508133213 71 77 3.0 8.0 0.00 0.00 0.00 54 1014.5
20260508132213 71 36 4.0 8.0 0.00 0.00 0.00 56 1014.6
20260508130212 71 39 2.0 7.0 0.00 0.00 0.00 57 1014.8
20260508125213 70 27 3.0 9.0 0.00 0.00 0.00 58 1015.0
20260508124212 70 70 1.0 6.0 0.00 0.00 0.00 57 1015.1
20260508123212 70 172 4.0 8.0 0.00 0.00 0.00 59 1015.2
20260508122212 69 51 3.0 10.0 0.00 0.00 0.00 61 1015.3
20260508121212 69 44 3.0 9.0 0.00 0.00 0.00 61 1015.4
20260508120212 68 44 2.0 7.0 0.00 0.00 0.00 63 1015.5
20260508115212 69 38 4.0 10.0 0.00 0.00 0.00 62 1015.6
20260508114212 68 53 4.0 8.0 0.00 0.00 0.00 63 1015.7
20260508113217 68 76 3.0 10.0 0.00 0.00 0.00 63 1015.7
20260508111212 67 59 2.0 6.0 0.00 0.00 0.00 64 1016.0
20260508110212 66 340 2.0 6.0 0.00 0.00 0.00 66 1016.1